﻿測定場所 (Monitoring sites),日付 (Measurement date),時間 (Measurement time),線量率 最大値 (max) μGy/h,線量率 最小値 (min) μGy/h,線量率 平均値 (average) μGy/h,
江戸川 (Edogawa),2017-04-23,23:01～24:00,0.0544,0.0486,0.0513,
江戸川 (Edogawa),2017-04-23,22:01～23:00,0.0545,0.0489,0.0516,
江戸川 (Edogawa),2017-04-23,21:01～22:00,0.0547,0.0471,0.0509,
江戸川 (Edogawa),2017-04-23,20:01～21:00,0.0549,0.0484,0.0514,
江戸川 (Edogawa),2017-04-23,19:01～20:00,0.0559,0.0483,0.0516,
江戸川 (Edogawa),2017-04-23,18:01～19:00,0.0537,0.0488,0.0514,
江戸川 (Edogawa),2017-04-23,17:01～18:00,0.0569,0.0496,0.0518,
江戸川 (Edogawa),2017-04-23,16:01～17:00,0.0555,0.0483,0.0515,
江戸川 (Edogawa),2017-04-23,15:01～16:00,0.0556,0.0488,0.0521,
江戸川 (Edogawa),2017-04-23,14:01～15:00,0.0555,0.0489,0.0515,
江戸川 (Edogawa),2017-04-23,13:01～14:00,0.0552,0.0459,0.0517,
江戸川 (Edogawa),2017-04-23,12:01～13:00,0.0560,0.0478,0.0520,
江戸川 (Edogawa),2017-04-23,11:01～12:00,0.0555,0.0492,0.0520,
江戸川 (Edogawa),2017-04-23,10:01～11:00,0.0552,0.0488,0.0517,
江戸川 (Edogawa),2017-04-23,09:01～10:00,0.0563,0.0484,0.0517,
江戸川 (Edogawa),2017-04-23,08:01～09:00,0.0543,0.0484,0.0514,
江戸川 (Edogawa),2017-04-23,07:01～08:00,0.0547,0.0474,0.0514,
江戸川 (Edogawa),2017-04-23,06:01～07:00,0.0543,0.0477,0.0510,
江戸川 (Edogawa),2017-04-23,05:01～06:00,0.0538,0.0475,0.0507,
江戸川 (Edogawa),2017-04-23,04:01～05:00,0.0535,0.0485,0.0509,
江戸川 (Edogawa),2017-04-23,03:01～04:00,0.0545,0.0473,0.0509,
江戸川 (Edogawa),2017-04-23,02:01～03:00,0.0543,0.0484,0.0507,
江戸川 (Edogawa),2017-04-23,01:01～02:00,0.0554,0.0493,0.0518,
江戸川 (Edogawa),2017-04-23,00:01～01:00,0.0589,0.0511,0.0545,
江戸川 (Edogawa),2017-04-22,23:01～24:00,0.0630,0.0535,0.0579,
江戸川 (Edogawa),2017-04-22,22:01～23:00,0.0718,0.0587,0.0652,
江戸川 (Edogawa),2017-04-22,21:01～22:00,0.0860,0.0678,0.0762,
江戸川 (Edogawa),2017-04-22,20:01～21:00,0.0903,0.0611,0.0752,
江戸川 (Edogawa),2017-04-22,19:01～20:00,0.0647,0.0544,0.0603,
江戸川 (Edogawa),2017-04-22,18:01～19:00,0.0600,0.0534,0.0565,
江戸川 (Edogawa),2017-04-22,17:01～18:00,0.0615,0.0533,0.0572,
江戸川 (Edogawa),2017-04-22,16:01～17:00,0.0568,0.0508,0.0538,
江戸川 (Edogawa),2017-04-22,15:01～16:00,0.0565,0.0506,0.0530,
江戸川 (Edogawa),2017-04-22,14:01～15:00,0.0564,0.0495,0.0531,
江戸川 (Edogawa),2017-04-22,13:01～14:00,0.0567,0.0494,0.0532,
江戸川 (Edogawa),2017-04-22,12:01～13:00,0.0568,0.0505,0.0534,
江戸川 (Edogawa),2017-04-22,11:01～12:00,0.0562,0.0502,0.0532,
江戸川 (Edogawa),2017-04-22,10:01～11:00,0.0579,0.0497,0.0532,
江戸川 (Edogawa),2017-04-22,09:01～10:00,0.0566,0.0486,0.0538,
江戸川 (Edogawa),2017-04-22,08:01～09:00,0.0578,0.0500,0.0536,
江戸川 (Edogawa),2017-04-22,07:01～08:00,0.0569,0.0500,0.0533,
江戸川 (Edogawa),2017-04-22,06:01～07:00,0.0568,0.0503,0.0530,
江戸川 (Edogawa),2017-04-22,05:01～06:00,0.0578,0.0504,0.0530,
江戸川 (Edogawa),2017-04-22,04:01～05:00,0.0578,0.0496,0.0530,
江戸川 (Edogawa),2017-04-22,03:01～04:00,0.0562,0.0499,0.0531,
江戸川 (Edogawa),2017-04-22,02:01～03:00,0.0558,0.0494,0.0530,
江戸川 (Edogawa),2017-04-22,01:01～02:00,0.0568,0.0496,0.0529,
江戸川 (Edogawa),2017-04-22,00:01～01:00,0.0565,0.0480,0.0524,
江戸川 (Edogawa),2017-04-21,23:01～24:00,0.0560,0.0482,0.0524,
江戸川 (Edogawa),2017-04-21,22:01～23:00,0.0571,0.0498,0.0529,
江戸川 (Edogawa),2017-04-21,21:01～22:00,0.0571,0.0500,0.0530,
江戸川 (Edogawa),2017-04-21,20:01～21:00,0.0572,0.0498,0.0534,
江戸川 (Edogawa),2017-04-21,19:01～20:00,0.0567,0.0508,0.0531,
江戸川 (Edogawa),2017-04-21,18:01～19:00,0.0574,0.0497,0.0532,
江戸川 (Edogawa),2017-04-21,17:01～18:00,0.0567,0.0493,0.0533,
江戸川 (Edogawa),2017-04-21,16:01～17:00,0.0570,0.0497,0.0535,
江戸川 (Edogawa),2017-04-21,15:01～16:00,0.0570,0.0495,0.0534,
江戸川 (Edogawa),2017-04-21,14:01～15:00,0.0575,0.0511,0.0537,
江戸川 (Edogawa),2017-04-21,13:01～14:00,0.0563,0.0505,0.0536,
江戸川 (Edogawa),2017-04-21,12:01～13:00,0.0589,0.0512,0.0542,
江戸川 (Edogawa),2017-04-21,11:01～12:00,0.0586,0.0521,0.0552,
江戸川 (Edogawa),2017-04-21,10:01～11:00,0.0568,0.0505,0.0535,
江戸川 (Edogawa),2017-04-21,09:01～10:00,0.0570,0.0489,0.0534,
江戸川 (Edogawa),2017-04-21,08:01～09:00,0.0582,0.0497,0.0532,
江戸川 (Edogawa),2017-04-21,07:01～08:00,0.0557,0.0491,0.0530,
江戸川 (Edogawa),2017-04-21,06:01～07:00,0.0563,0.0501,0.0527,
江戸川 (Edogawa),2017-04-21,05:01～06:00,0.0559,0.0498,0.0526,
江戸川 (Edogawa),2017-04-21,04:01～05:00,0.0550,0.0484,0.0527,
江戸川 (Edogawa),2017-04-21,03:01～04:00,0.0563,0.0492,0.0524,
江戸川 (Edogawa),2017-04-21,02:01～03:00,0.0560,0.0488,0.0529,
江戸川 (Edogawa),2017-04-21,01:01～02:00,0.0564,0.0494,0.0528,
江戸川 (Edogawa),2017-04-21,00:01～01:00,0.0558,0.0501,0.0531,
江戸川 (Edogawa),2017-04-20,23:01～24:00,0.0569,0.0489,0.0528,
江戸川 (Edogawa),2017-04-20,22:01～23:00,0.0567,0.0499,0.0529,
江戸川 (Edogawa),2017-04-20,21:01～22:00,0.0560,0.0500,0.0526,
江戸川 (Edogawa),2017-04-20,20:01～21:00,0.0558,0.0492,0.0533,
江戸川 (Edogawa),2017-04-20,19:01～20:00,0.0578,0.0490,0.0534,
江戸川 (Edogawa),2017-04-20,18:01～19:00,0.0579,0.0489,0.0531,
江戸川 (Edogawa),2017-04-20,17:01～18:00,0.0562,0.0504,0.0530,
江戸川 (Edogawa),2017-04-20,16:01～17:00,0.0568,0.0502,0.0536,
江戸川 (Edogawa),2017-04-20,15:01～16:00,0.0569,0.0495,0.0534,
江戸川 (Edogawa),2017-04-20,14:01～15:00,0.0581,0.0505,0.0538,
江戸川 (Edogawa),2017-04-20,13:01～14:00,0.0558,0.0488,0.0531,
江戸川 (Edogawa),2017-04-20,12:01～13:00,0.0568,0.0499,0.0534,
江戸川 (Edogawa),2017-04-20,11:01～12:00,0.0567,0.0499,0.0533,
江戸川 (Edogawa),2017-04-20,10:01～11:00,0.0567,0.0509,0.0537,
江戸川 (Edogawa),2017-04-20,09:01～10:00,0.0574,0.0501,0.0533,
江戸川 (Edogawa),2017-04-20,08:01～09:00,0.0562,0.0495,0.0531,
江戸川 (Edogawa),2017-04-20,07:01～08:00,0.0559,0.0470,0.0525,
江戸川 (Edogawa),2017-04-20,06:01～07:00,0.0563,0.0498,0.0527,
江戸川 (Edogawa),2017-04-20,05:01～06:00,0.0558,0.0490,0.0526,
江戸川 (Edogawa),2017-04-20,04:01～05:00,0.0553,0.0493,0.0523,
江戸川 (Edogawa),2017-04-20,03:01～04:00,0.0572,0.0494,0.0526,
江戸川 (Edogawa),2017-04-20,02:01～03:00,0.0558,0.0503,0.0526,
江戸川 (Edogawa),2017-04-20,01:01～02:00,0.0556,0.0493,0.0523,
江戸川 (Edogawa),2017-04-20,00:01～01:00,0.0563,0.0495,0.0528,
江戸川 (Edogawa),2017-04-19,23:01～24:00,0.0549,0.0499,0.0528,
江戸川 (Edogawa),2017-04-19,22:01～23:00,0.0568,0.0493,0.0528,
江戸川 (Edogawa),2017-04-19,21:01～22:00,0.0567,0.0498,0.0528,
江戸川 (Edogawa),2017-04-19,20:01～21:00,0.0575,0.0492,0.0527,
江戸川 (Edogawa),2017-04-19,19:01～20:00,0.0554,0.0499,0.0527,
江戸川 (Edogawa),2017-04-19,18:01～19:00,0.0561,0.0500,0.0531,
江戸川 (Edogawa),2017-04-19,17:01～18:00,0.0572,0.0490,0.0531,
江戸川 (Edogawa),2017-04-19,16:01～17:00,0.0568,0.0508,0.0531,
江戸川 (Edogawa),2017-04-19,15:01～16:00,0.0556,0.0501,0.0530,
江戸川 (Edogawa),2017-04-19,14:01～15:00,0.0566,0.0506,0.0529,
江戸川 (Edogawa),2017-04-19,13:01～14:00,0.0564,0.0493,0.0527,
江戸川 (Edogawa),2017-04-19,12:01～13:00,0.0569,0.0497,0.0530,
江戸川 (Edogawa),2017-04-19,11:01～12:00,0.0559,0.0500,0.0529,
江戸川 (Edogawa),2017-04-19,10:01～11:00,0.0565,0.0503,0.0530,
江戸川 (Edogawa),2017-04-19,09:01～10:00,0.0565,0.0500,0.0528,
江戸川 (Edogawa),2017-04-19,08:01～09:00,0.0566,0.0497,0.0523,
江戸川 (Edogawa),2017-04-19,07:01～08:00,0.0546,0.0484,0.0518,
江戸川 (Edogawa),2017-04-19,06:01～07:00,0.0542,0.0484,0.0514,
江戸川 (Edogawa),2017-04-19,05:01～06:00,0.0557,0.0476,0.0510,
江戸川 (Edogawa),2017-04-19,04:01～05:00,0.0544,0.0481,0.0512,
江戸川 (Edogawa),2017-04-19,03:01～04:00,0.0550,0.0483,0.0513,
江戸川 (Edogawa),2017-04-19,02:01～03:00,0.0551,0.0479,0.0516,
江戸川 (Edogawa),2017-04-19,01:01～02:00,0.0546,0.0492,0.0520,
江戸川 (Edogawa),2017-04-19,00:01～01:00,0.0540,0.0471,0.0517,
江戸川 (Edogawa),2017-04-18,23:01～24:00,0.0548,0.0491,0.0524,
江戸川 (Edogawa),2017-04-18,22:01～23:00,0.0560,0.0480,0.0518,
江戸川 (Edogawa),2017-04-18,21:01～22:00,0.0563,0.0483,0.0519,
江戸川 (Edogawa),2017-04-18,20:01～21:00,0.0556,0.0484,0.0516,
江戸川 (Edogawa),2017-04-18,19:01～20:00,0.0550,0.0483,0.0515,
江戸川 (Edogawa),2017-04-18,18:01～19:00,0.0547,0.0482,0.0518,
江戸川 (Edogawa),2017-04-18,17:01～18:00,0.0551,0.0488,0.0525,
江戸川 (Edogawa),2017-04-18,16:01～17:00,0.0549,0.0490,0.0520,
江戸川 (Edogawa),2017-04-18,15:01～16:00,0.0560,0.0490,0.0523,
江戸川 (Edogawa),2017-04-18,14:01～15:00,0.0558,0.0488,0.0522,
江戸川 (Edogawa),2017-04-18,13:01～14:00,0.0546,0.0491,0.0518,
江戸川 (Edogawa),2017-04-18,12:01～13:00,0.0563,0.0490,0.0524,
江戸川 (Edogawa),2017-04-18,11:01～12:00,0.0548,0.0489,0.0522,
江戸川 (Edogawa),2017-04-18,10:01～11:00,0.0553,0.0492,0.0525,
江戸川 (Edogawa),2017-04-18,09:01～10:00,0.0564,0.0492,0.0528,
江戸川 (Edogawa),2017-04-18,08:01～09:00,0.0595,0.0516,0.0551,
江戸川 (Edogawa),2017-04-18,07:01～08:00,0.0721,0.0560,0.0637,
江戸川 (Edogawa),2017-04-18,06:01～07:00,0.0764,0.0648,0.0708,
江戸川 (Edogawa),2017-04-18,05:01～06:00,0.0689,0.0501,0.0578,
江戸川 (Edogawa),2017-04-18,04:01～05:00,0.0577,0.0495,0.0535,
江戸川 (Edogawa),2017-04-18,03:01～04:00,0.0593,0.0515,0.0560,
江戸川 (Edogawa),2017-04-18,02:01～03:00,0.0608,0.0537,0.0573,
江戸川 (Edogawa),2017-04-18,01:01～02:00,0.0612,0.0537,0.0577,
江戸川 (Edogawa),2017-04-18,00:01～01:00,0.0607,0.0544,0.0571,
江戸川 (Edogawa),2017-04-17,23:01～24:00,0.0609,0.0523,0.0567,
江戸川 (Edogawa),2017-04-17,22:01～23:00,0.0573,0.0484,0.0536,
江戸川 (Edogawa),2017-04-17,21:01～22:00,0.0563,0.0500,0.0532,
江戸川 (Edogawa),2017-04-17,20:01～21:00,0.0571,0.0511,0.0543,
江戸川 (Edogawa),2017-04-17,19:01～20:00,0.0623,0.0529,0.0574,
江戸川 (Edogawa),2017-04-17,18:01～19:00,0.0637,0.0550,0.0594,
江戸川 (Edogawa),2017-04-17,17:01～18:00,0.0641,0.0588,0.0616,
江戸川 (Edogawa),2017-04-17,16:01～17:00,0.0636,0.0510,0.0549,
江戸川 (Edogawa),2017-04-17,15:01～16:00,0.0575,0.0505,0.0539,
江戸川 (Edogawa),2017-04-17,14:01～15:00,0.0578,0.0510,0.0540,
江戸川 (Edogawa),2017-04-17,13:01～14:00,0.0563,0.0505,0.0539,
江戸川 (Edogawa),2017-04-17,12:01～13:00,0.0588,0.0509,0.0543,
江戸川 (Edogawa),2017-04-17,11:01～12:00,0.0581,0.0495,0.0540,
江戸川 (Edogawa),2017-04-17,10:01～11:00,0.0571,0.0505,0.0541,
江戸川 (Edogawa),2017-04-17,09:01～10:00,0.0580,0.0502,0.0541,
江戸川 (Edogawa),2017-04-17,08:01～09:00,0.0573,0.0515,0.0540,
江戸川 (Edogawa),2017-04-17,07:01～08:00,0.0579,0.0503,0.0541,
江戸川 (Edogawa),2017-04-17,06:01～07:00,0.0562,0.0504,0.0535,
江戸川 (Edogawa),2017-04-17,05:01～06:00,0.0559,0.0496,0.0532,
江戸川 (Edogawa),2017-04-17,04:01～05:00,0.0567,0.0502,0.0536,
江戸川 (Edogawa),2017-04-17,03:01～04:00,0.0571,0.0509,0.0536,
江戸川 (Edogawa),2017-04-17,02:01～03:00,0.0569,0.0500,0.0539,
江戸川 (Edogawa),2017-04-17,01:01～02:00,0.0592,0.0511,0.0540,
江戸川 (Edogawa),2017-04-17,00:01～01:00,0.0573,0.0492,0.0540,
